Find Starlink 33643

NORAD ID: 63381 Int'l Des: 2025-063 Owner: SPXS Country: US Constellation: starlink operational
LEOCIRCULAR

現在のビュー

3D地球を読み込み中...

About Starlink 33643

Starlink 33643 (NORAD 63381) is a starlink constellation satellite (v2 mini) launched Mar 26, 2025 by SPXS of US. It operates in LEO, CIRCULAR orbit with a mass of 575.00 kg.

Starlink 33643について

説明を読み込み中...

次回通過

Passes for default location (London). Set your location on the main map for personalized predictions.

高度履歴

Loading altitude history...

軌道要素

1 63381U 25063U 26195.58335648 -.00023983 00000-0 -71949-3 0 9992
2 63381 53.1582 182.8839 0001300 75.2556 146.9824 15.33579468 5819
Epoch: Jul 14, 2026 • Age: 9 hours

現在のステータス

高度 470.9 km
遠地点 / 近地点 N/A
速度 7.64 km/s
衛星直下点 53.30°N, 5.26°W
打ち上げ日 Mar 26, 2025
運用期間 1.3 years
タイプ internet

技術仕様

分類 Payload
質量 575.00 kg
乾燥質量 530.00 kg
総質量 575.00 kg
長さ 0.30 m
直径 4.10 m
スパン 29.00 m
形状 Box + pan
製造者 SPXS
バスタイプ Starlink V2MO
フェーズステータス In Orbit
所有者/国 SPXS/US

Most Searched